Вернуться в каталог

STARLINK-35356

АктивенСвязьVLEO
NORAD 65836·PAYLOAD·🇺🇸 United States

Запущен Sep 29, 2025 с Vandenberg Space Force Base

Loading…

Ближайшие Пролёты (ближайшие 24 часа)

TLE

СвежийSource: CelesTrak SupGP

Эпоха: Sep 14, 2026, 15:52 UTC

1 65836C 25221P   26257.66159722 -.00007962  00000+0 -23556-3 0  2576
2 65836  53.1572 288.6884 0001190  75.5919 249.9436 15.34350130    17

Отслеживайте STARLINK-35356 в реальном времени с AllMySat

Download on the App Store